• In Hungary
  • List of Countries
  • For 7 days
  • Water Temperature
  • Satellite Maps
  • Weather Map
  • News
  • Weather Widgets
  • user-avatar
    Login

    Hourly Weather Sint-Niklaas

    Today, 19 October, Thursday

    Time Temperature Precipitation Wind Pressure Humidity
    00:00 +15°C° 0 mm 2 mps 757 mmHg 89%
    01:00 +14°C° 0 mm 2 mps 757 mmHg 89%
    02:00 +14°C° 0 mm 2 mps 756 mmHg 89%
    03:00 +14°C° 0 mm 2 mps 756 mmHg 89%
    04:00 +12°C° 0 mm 3 mps 756 mmHg 89%
    05:00 +12°C° 0 mm 3 mps 756 mmHg 89%
    06:00 +12°C° 0 mm 3 mps 756 mmHg 90%
    07:00 +13°C° 0 mm 3 mps 756 mmHg 84%
    08:00 +15°C° 0 mm 4 mps 756 mmHg 79%
    09:00 +17°C° 0 mm 4 mps 756 mmHg 74%
    10:00 +19°C° 0 mm 5 mps 755 mmHg 70%
    11:00 +20°C° 0 mm 5 mps 755 mmHg 67%
    12:00 +22°C° 0 mm 6 mps 755 mmHg 63%
    13:00 +22°C° 0 mm 6 mps 754 mmHg 64%
    14:00 +21°C° 0 mm 6 mps 754 mmHg 65%
    15:00 +21°C° 0 mm 5 mps 753 mmHg 66%
    16:00 +21°C° 0 mm 5 mps 754 mmHg 68%
    17:00 +20°C° 0 mm 5 mps 754 mmHg 71%
    18:00 +19°C° 0 mm 5 mps 754 mmHg 73%
    19:00 +19°C° 0 mm 5 mps 754 mmHg 73%
    20:00 +17°C° 0 mm 5 mps 754 mmHg 73%
    21:00 +17°C° 0 mm 5 mps 754 mmHg 73%
    22:00 +16°C° 0 mm 5 mps 754 mmHg 74%
    23:00 +16°C° 0 mm 6 mps 754 mmHg 76%

    Tomorrow, 20 October, Friday

    Time Temperature Precipitation Wind Pressure Humidity
    00:00 +16°C° 0 mm 6 mps 754 mmHg 78%
    01:00 +15°C° 0.2 mm 6 mps 754 mmHg 79%
    02:00 +15°C° 0.2 mm 7 mps 754 mmHg 81%
    03:00 +15°C° 0.2 mm 7 mps 754 mmHg 82%
    04:00 +14°C° 0.5 mm 7 mps 754 mmHg 82%
    05:00 +14°C° 0.5 mm 7 mps 755 mmHg 81%
    06:00 +12°C° 0.5 mm 7 mps 755 mmHg 81%
    07:00 +12°C° 0 mm 7 mps 756 mmHg 78%
    08:00 +12°C° 0 mm 8 mps 756 mmHg 76%
    09:00 +13°C° 0 mm 8 mps 757 mmHg 74%
    10:00 +13°C° 0 mm 8 mps 757 mmHg 69%
    11:00 +15°C° 0 mm 8 mps 758 mmHg 65%
    12:00 +15°C° 0 mm 8 mps 758 mmHg 61%
    13:00 +15°C° 0 mm 7 mps 758 mmHg 61%
    14:00 +15°C° 0 mm 7 mps 758 mmHg 62%
    15:00 +15°C° 0 mm 6 mps 758 mmHg 62%
    16:00 +14°C° 0 mm 5 mps 759 mmHg 66%
    17:00 +13°C° 0 mm 4 mps 759 mmHg 69%
    18:00 +12°C° 0 mm 4 mps 759 mmHg 72%
    19:00 +12°C° 0 mm 4 mps 759 mmHg 71%
    20:00 +12°C° 0 mm 4 mps 759 mmHg 70%
    21:00 +12°C° 0 mm 4 mps 758 mmHg 69%
    22:00 +12°C° 0 mm 5 mps 758 mmHg 68%
    23:00 +12°C° 0 mm 5 mps 757 mmHg 66%

    Day after tomorrow, 21 October, Saturday

    Time Temperature Precipitation Wind Pressure Humidity
    00:00 +13°C° 0 mm 6 mps 757 mmHg 64%
    01:00 +13°C° 0.1 mm 6 mps 756 mmHg 70%
    02:00 +12°C° 0.1 mm 7 mps 756 mmHg 77%
    03:00 +14°C° 0.1 mm 7 mps 755 mmHg 83%
    04:00 +14°C° 0.3 mm 7 mps 755 mmHg 84%
    05:00 +14°C° 0.3 mm 7 mps 755 mmHg 85%
    06:00 +15°C° 0.3 mm 7 mps 755 mmHg 85%
    07:00 +15°C° 0.3 mm 7 mps 755 mmHg 84%
    08:00 +15°C° 0.3 mm 7 mps 756 mmHg 83%
    09:00 +15°C° 0.3 mm 8 mps 756 mmHg 82%
    10:00 +15°C° 0.1 mm 8 mps 756 mmHg 74%
    11:00 +16°C° 0.1 mm 9 mps 756 mmHg 67%
    12:00 +16°C° 0.1 mm 10 mps 756 mmHg 60%
    13:00 +16°C° 0 mm 10 mps 756 mmHg 59%
    14:00 +16°C° 0 mm 9 mps 756 mmHg 58%
    15:00 +15°C° 0 mm 9 mps 756 mmHg 57%
    16:00 +13°C° 0 mm 9 mps 756 mmHg 59%
    17:00 +12°C° 0 mm 8 mps 756 mmHg 60%
    18:00 +11°C° 0 mm 8 mps 756 mmHg 62%
    19:00 +11°C° 0 mm 9 mps 756 mmHg 63%
    20:00 +11°C° 0 mm 9 mps 756 mmHg 64%
    21:00 +11°C° 0 mm 9 mps 757 mmHg 66%
    22:00 +10°C° 0.1 mm 9 mps 757 mmHg 67%
    23:00 +10°C° 0.1 mm 9 mps 757 mmHg 68%

    22 October, Sunday

    Time Temperature Precipitation Wind Pressure Humidity
    00:00 +10°C° 0.1 mm 9 mps 757 mmHg 69%
    01:00 +10°C° 0.1 mm 9 mps 757 mmHg 69%
    02:00 +10°C° 0.1 mm 9 mps 757 mmHg 70%
    03:00 +8°C° 0.1 mm 9 mps 757 mmHg 71%
    04:00 +9°C° 0.1 mm 8 mps 757 mmHg 73%
    05:00 +9°C° 0.1 mm 8 mps 757 mmHg 74%
    06:00 +9°C° 0.1 mm 8 mps 758 mmHg 75%
    07:00 +9°C° 0.1 mm 8 mps 758 mmHg 72%
    08:00 +10°C° 0.1 mm 9 mps 758 mmHg 70%
    09:00 +10°C° 0.1 mm 9 mps 759 mmHg 67%
    10:00 +11°C° 0.1 mm 9 mps 759 mmHg 65%
    11:00 +11°C° 0.1 mm 9 mps 759 mmHg 64%
    12:00 +11°C° 0.1 mm 9 mps 759 mmHg 62%
    13:00 +11°C° 0.1 mm 8 mps 759 mmHg 64%
    14:00 +11°C° 0.1 mm 8 mps 760 mmHg 65%
    15:00 +11°C° 0.1 mm 7 mps 760 mmHg 66%
    16:00 +10°C° 0.6 mm 7 mps 760 mmHg 71%
    17:00 +10°C° 0.6 mm 7 mps 760 mmHg 75%
    18:00 +10°C° 0.6 mm 7 mps 761 mmHg 80%
    19:00 +10°C° 0.7 mm 7 mps 761 mmHg 80%
    20:00 +10°C° 0.7 mm 7 mps 761 mmHg 80%
    21:00 +10°C° 0.7 mm 7 mps 762 mmHg 81%
    22:00 +10°C° 0.1 mm 6 mps 762 mmHg 81%
    23:00 +10°C° 0.1 mm 6 mps 762 mmHg 81%

    23 October, Monday

    Time Temperature Precipitation Wind Pressure Humidity
    00:00 +9°C° 0.1 mm 5 mps 763 mmHg 81%
    01:00 +9°C° 0 mm 5 mps 763 mmHg 82%
    02:00 +9°C° 0 mm 5 mps 763 mmHg 83%
    03:00 +9°C° 0 mm 5 mps 763 mmHg 84%
    04:00 +9°C° 0 mm 5 mps 764 mmHg 85%
    05:00 +10°C° 0 mm 5 mps 764 mmHg 86%
    06:00 +10°C° 0 mm 5 mps 764 mmHg 88%
    07:00 +10°C° 0.2 mm 5 mps 764 mmHg 88%
    08:00 +11°C° 0.2 mm 6 mps 764 mmHg 88%
    09:00 +11°C° 0.2 mm 6 mps 764 mmHg 88%
    10:00 +11°C° 0.6 mm 6 mps 764 mmHg 88%
    11:00 +11°C° 0.6 mm 7 mps 764 mmHg 87%
    12:00 +11°C° 0.6 mm 7 mps 764 mmHg 87%
    13:00 +11°C° 0.9 mm 7 mps 764 mmHg 87%
    14:00 +11°C° 0.9 mm 7 mps 764 mmHg 88%
    15:00 +11°C° 0.9 mm 7 mps 764 mmHg 89%
    16:00 +11°C° 0.6 mm 7 mps 764 mmHg 89%
    17:00 +11°C° 0.6 mm 7 mps 764 mmHg 89%
    18:00 +11°C° 0.6 mm 7 mps 764 mmHg 89%
    19:00 +12°C° 0.6 mm 7 mps 765 mmHg 88%
    20:00 +12°C° 0.6 mm 7 mps 765 mmHg 88%
    21:00 +12°C° 0.6 mm 7 mps 765 mmHg 88%
    22:00 +12°C° 0.1 mm 7 mps 765 mmHg 87%
    23:00 +12°C° 0.1 mm 7 mps 765 mmHg 87%

    24 October, Tuesday

    Time Temperature Precipitation Wind Pressure Humidity
    00:00 +13°C° 0.1 mm 6 mps 765 mmHg 87%
    01:00 +11°C° 0 mm 6 mps 765 mmHg 87%
    02:00 +11°C° 0 mm 6 mps 765 mmHg 88%
    03:00 +11°C° 0 mm 6 mps 765 mmHg 89%
    04:00 +11°C° 0 mm 6 mps 765 mmHg 90%
    05:00 +10°C° 0 mm 5 mps 765 mmHg 91%
    06:00 +10°C° 0 mm 5 mps 765 mmHg 92%
    07:00 +10°C° 0 mm 6 mps 765 mmHg 89%
    08:00 +11°C° 0 mm 6 mps 765 mmHg 87%
    09:00 +13°C° 0 mm 6 mps 766 mmHg 84%
    10:00 +14°C° 0 mm 6 mps 765 mmHg 79%
    11:00 +15°C° 0 mm 6 mps 765 mmHg 75%
    12:00 +16°C° 0 mm 6 mps 765 mmHg 70%
    13:00 +16°C° 0 mm 5 mps 765 mmHg 70%
    14:00 +15°C° 0 mm 5 mps 765 mmHg 70%
    15:00 +15°C° 0 mm 4 mps 764 mmHg 70%
    16:00 +14°C° 0 mm 4 mps 765 mmHg 73%
    17:00 +13°C° 0 mm 4 mps 765 mmHg 76%
    18:00 +12°C° 0 mm 4 mps 765 mmHg 79%
    19:00 +12°C° 0 mm 4 mps 765 mmHg 80%
    20:00 +11°C° 0 mm 3 mps 765 mmHg 80%
    21:00 +11°C° 0 mm 3 mps 765 mmHg 81%
    22:00 +11°C° 0 mm 3 mps 765 mmHg 81%
    23:00 +11°C° 0 mm 4 mps 765 mmHg 80%
    Show more